Regional Weather Roundup
Issued by NWS

Home | Current Version | Previous Version | Graphics & Text | Print | Product List | Glossary On
Versions: 1 2 3 4 5 6 7 8 9 10 11 12 13 14 15 16 17 18 19 20 21 22 23 24 25 26 27 28 29 30 31 32 33 34 35 36 37 38 39 40 41 42 43 44 45 46 47 48 49 50
000
ASUS43 KMPX 230110
RWRMN
WEATHER ROUNDUP FOR MINNESOTA
NATIONAL WEATHER SERVICE TWIN CITIES/CHANHASSEN MN
800 PM CDT TUE JUL 22 2014


NOTE: "FAIR" INDICATES FEW OR NO CLOUDS BELOW 12,000 FEET WITH NO
SIGNIFICANT WEATHER AND/OR OBSTRUCTIONS TO VISIBILITY. N/A MEANS
CURRENT SKY AND/OR WEATHER CONDITIONS ARE NOT AVAILABLE.

MNZ060>063-068>070-230200-
   Twin Cities Metro

CITY           SKY/WX    TMP DP  RH WIND       PRES   REMARKS
TWIN CITIES    PTCLDY    79  54  41 NW14G22   30.10R
ST PAUL        CLEAR     78  56  46 N13       30.10R
CRYSTAL        CLEAR     79  53  40 N10       30.10R
BLAINE         CLEAR     79  55  44 N8        30.11R
LAKEVILLE      CLEAR     75  55  50 NW9G16    30.10R
EDEN PRAIRIE   CLEAR     78  56  46 NW8       30.10R
SOUTH ST PAUL  CLEAR     80  54  40 N12       30.10R
LAKE ELMO      FAIR      75  59  57 NW7       30.11R
$$
MNZ001>005-007-008-013>017-022>024-027-028-230200-
   Northwest Minnesota

CITY           SKY/WX    TMP DP  RH WIND       PRES   REMARKS
BEMIDJI        CLEAR     71  53  51 NW9       30.18R
HALLOCK        SUNNY     73  54  49 N9        30.19R
ROSEAU         PTSUNNY   72  59  64 N6        30.18R
WARROAD        CLEAR     73  57  56 NW9       30.17R
THIEF RVR FALL SUNNY     72  57  60 NW7       30.19S
CROOKSTON      SUNNY     72  59  64 N7        30.20S
FOSSTON        CLEAR     70  55  60 N6        30.20R
DETROIT LAKES  CLEAR     72  55  56 N8        30.21R
MOORHEAD       SUNNY     73  61  64 N8        30.20R
PARK RAPIDS    CLEAR     72  52  49 NW10      30.19R
$$
MNZ006-009>011-018-025>026-230200-
   North Central Minnesota

CITY           SKY/WX    TMP DP  RH WIND       PRES   REMARKS
BAUDETTE       CLEAR     71  57  61 NW9       30.17R
FLAG ISLAND    CLEAR     72  54  53 N20       30.16R
INTL FALLS     CLEAR     71  54  54 NW7       30.13R
WASKISH        CLEAR     72  54  53 N5        30.17R
BIG FORK       PTCLDY    72  52  49 N2        30.16R
LONGVILLE      PTCLDY    66  59  77 CALM      30.17R
GRAND RAPIDS   CLEAR     72  50  46 N12G18    30.16R
CRANE LAKE     CLEAR     68  57  68 CALM      30.13S
ORR            CLEAR     70  52  52 CALM      30.12R
COOK           CLEAR     70  54  56 W3        30.14R
$$
MNZ012-019>021-037-230200-
   Northeast Minnesota

CITY           SKY/WX    TMP DP  RH WIND       PRES   REMARKS
DULUTH         PTCLDY    72  56  57 N3        30.13R
ELY            CLEAR     68  52  56 NW5       30.13R
HIBBING        CLEAR     72  53  51 N8        30.14R
DULUTH HARBOR  CLEAR     70  57  64 NE3       30.11R
TWO HARBORS    PTCLDY    72  55  56 N3        30.10R
SILVER BAY     CLEAR     68  59  73 CALM      30.10R
GRAND MARAIS     N/A     60  49  66 NE3       30.07R
G MARAIS ARPRT CLEAR     64  52  63 CALM      30.12R
$$
MNZ029>031-032-039>041-046>048-054>057-064-230200-
   West Central Minnesota

CITY           SKY/WX    TMP DP  RH WIND       PRES   REMARKS
FERGUS FALLS   CLEAR     72  52  49 N8        30.18R
WHEATON        CLEAR     72  57  60 N7        30.21R
MORRIS         CLEAR     72  57  60 N7        30.18R
ALEXANDRIA     CLEAR     74  55  51 N9        30.19R
ELBOW LAKE     FAIR      72  56  57 N10       30.18S
WADENA         CLEAR     70  55  60 N5        30.18R
GLENWOOD       CLEAR     72  55  56 NW8       30.18S
APPLETON       CLEAR     77  55  47 N8        30.18R
BENSON         CLEAR     73  59  60 N6        30.17S
ORTONVILLE     CLEAR     75  57  53 N6        30.19R
MADISON        CLEAR     77  57  50 N9        30.19R
WILLMAR        FAIR      75  54  46 NW8       30.17S
$$
MNZ033>034-036-042>043-049>051-058-059-230200-
   Central Minnesota

CITY           SKY/WX    TMP DP  RH WIND       PRES   REMARKS
ST CLOUD       CLEAR     78  54  43 N6        30.13R
SAUK CENTRE    FAIR      74  53  48 N10       30.17R
PAYNESVILLE    HVY RAIN  72  51  46 W8        30.16R
AITKIN         CLEAR     73  57  56 NW6       30.14R
PINE RIVER     CLEAR     73  54  49 N7        30.20R
BRAINERD       CLEAR     73  52  47 N12       30.16R
STAPLES        PTCLDY    72  54  53 N6        30.17R
LONG PRAIRIE   FAIR      72  52  49 NW6       30.17S
LITTLE FALLS   CLEAR     73  52  46 N6        30.16R
LITCHFIELD     CLEAR     77  55  47 NW9       30.15R
BUFFALO        CLEAR     77  53  43 NW5       30.13S
MAPLE LAKE     CLEAR     76  59  53 NW3       30.14S
$$
MNZ037-044-045-052-053-230200-
   East Central Minnesota

CITY           SKY/WX    TMP DP  RH WIND       PRES   REMARKS
PRINCETON      CLEAR     75  55  50 N7        30.13R
MORA           CLEAR     70  55  60 NW5       30.15R
CAMBRIDGE      CLEAR     77  57  50 NW5       30.11R
RUSH CITY      CLEAR     74  58  57 NW6       30.12R
MOOSE LAKE     CLEAR     72  54  53 N6        30.11R
HINCKLEY       FAIR      72  59  64 NW6       30.12R
CLOQUET        PTCLDY    72  52  49 NW8       30.13R
MCGREGOR       PTCLDY    73  54  49 NW7       30.14R
$$
MNZ071>073-080-081-089-090-097-098-230200-
   Southwest Minnesota

CITY           SKY/WX    TMP DP  RH WIND       PRES   REMARKS
MONTEVIDEO     CLEAR     75  57  53 N8        30.18R
GRANITE FALLS  CLEAR     75  59  56 NW6       30.18S
CANBY          CLEAR     75  56  51 N5        30.20R
MARSHALL       CLEAR     75  55  50 N10       30.17S
REDWOOD FALLS  CLEAR     77  56  48 NW7       30.15R
OLIVIA         CLEAR     75  54  46 N9        30.15S
PIPESTONE      CLEAR     75  54  46 N7        30.20R
WINDOM         CLEAR     75  55  50 NW8       30.17R
WORTHINGTON    CLEAR     63  59  88 N10       30.19R
JACKSON        PTCLDY    77  55  47 N8        30.16S
TRACY          CLEAR     74  57  54 N7        30.18R
SLAYTON        CLEAR     74  54  49 CALM      30.20R
$$
MNZ065>067-074>077-082>085-091>093-230200-
   South Central Minnesota

CITY           SKY/WX    TMP DP  RH WIND       PRES   REMARKS
MANKATO        CLEAR     79  55  44 NW13      30.12R
NEW ULM        CLEAR     77  57  50 N9        30.13R
ST JAMES       CLEAR     79  57  47 NW7       30.14S
FAIRMONT       CLEAR     79  55  44 NW10      30.13S
GLENCOE        CLEAR     78  51  39 NW8       30.12S
FARIBAULT      CLEAR     81  54  39 NW7       30.11S
OWATONNA       CLEAR     77  61  57 N8        30.11R
WASECA         CLEAR     77  55  47 NW7       30.13R
ALBERT LEA     PTCLDY    79  61  53 N7        30.11R
$$
MNZ078>079-086>088-094>096-230200-
   Southeast Minnesota

CITY           SKY/WX    TMP DP  RH WIND       PRES   REMARKS
ROCHESTER      PTCLDY    77  64  64 N10       30.10R
RED WING       CLEAR     79  59  50 NW6       30.08R
STANTON        MOCLDY    80  59  48 NW8       30.09R
DODGE CENTER   CLEAR     77  63  61 NW10      30.11R
WINONA         CLEAR     79  63  57 N5        30.07R
AUSTIN         PTCLDY    79  59  50 N9        30.09S
PRESTON        CLEAR     76  68  77 N10       30.08S
$$
ABBREVIATIONS USED IN REMARKS
   TC - TEMPERATURES IN CELSIUS
  WCI - WIND CHILL INDEX
   HX - HEAT INDEX
  VSB - VISIBILITY
$$



USA.gov is the U.S. government's official web portal to all federal, state and local government web resources and services.